Hourly Weather Abay (Maktaaralskiy rayon)

Today, 25 July, Sunday

Time Temperature Precipitation Wind Pressure Humidity
00:00 +32°C° 0 mm 4 mps 730 mmHg 19%
01:00 +30°C° 0 mm 3 mps 730 mmHg 20%
02:00 +29°C° 0 mm 3 mps 730 mmHg 21%
03:00 +28°C° 0 mm 2 mps 730 mmHg 22%
04:00 +27°C° 0 mm 2 mps 730 mmHg 24%
05:00 +27°C° 0 mm 2 mps 730 mmHg 25%
06:00 +29°C° 0 mm 2 mps 731 mmHg 22%
07:00 +32°C° 0 mm 2 mps 731 mmHg 20%
08:00 +35°C° 0 mm 2 mps 731 mmHg 17%
09:00 +38°C° 0 mm 2 mps 731 mmHg 15%
10:00 +40°C° 0 mm 2 mps 731 mmHg 13%
11:00 +43°C° 0 mm 3 mps 731 mmHg 11%
12:00 +45°C° 0 mm 3 mps 731 mmHg 10%
13:00 +46°C° 0 mm 3 mps 730 mmHg 9%
14:00 +48°C° 0 mm 4 mps 730 mmHg 8%
15:00 +48°C° 0 mm 4 mps 729 mmHg 8%
16:00 +48°C° 0 mm 4 mps 729 mmHg 7%
17:00 +49°C° 0 mm 4 mps 729 mmHg 7%
18:00 +45°C° 0 mm 4 mps 729 mmHg 8%
19:00 +42°C° 0 mm 4 mps 729 mmHg 10%
20:00 +38°C° 0 mm 4 mps 728 mmHg 11%
21:00 +39°C° 0 mm 5 mps 728 mmHg 12%
22:00 +39°C° 0 mm 6 mps 729 mmHg 13%
23:00 +39°C° 0 mm 6 mps 729 mmHg 14%

Tomorrow, 26 July, Monday

Time Temperature Precipitation Wind Pressure Humidity
00:00 +36°C° 0 mm 6 mps 729 mmHg 15%
01:00 +34°C° 0 mm 5 mps 728 mmHg 17%
02:00 +33°C° 0 mm 4 mps 728 mmHg 19%
03:00 +31°C° 0 mm 3 mps 728 mmHg 20%
04:00 +30°C° 0 mm 3 mps 729 mmHg 22%
05:00 +28°C° 0 mm 3 mps 729 mmHg 24%
06:00 +31°C° 0 mm 3 mps 729 mmHg 21%
07:00 +34°C° 0 mm 3 mps 730 mmHg 18%
08:00 +37°C° 0 mm 3 mps 730 mmHg 15%
09:00 +41°C° 0 mm 5 mps 730 mmHg 13%
10:00 +45°C° 0 mm 6 mps 729 mmHg 11%
11:00 +47°C° 0 mm 7 mps 729 mmHg 10%
12:00 +49°C° 0 mm 7 mps 729 mmHg 9%
13:00 +50°C° 0 mm 7 mps 729 mmHg 9%
14:00 +51°C° 0 mm 7 mps 728 mmHg 9%
15:00 +50°C° 0 mm 7 mps 728 mmHg 9%
16:00 +50°C° 0 mm 7 mps 728 mmHg 10%
17:00 +50°C° 0 mm 7 mps 728 mmHg 10%
18:00 +46°C° 0 mm 7 mps 728 mmHg 13%
19:00 +44°C° 0 mm 6 mps 728 mmHg 15%
20:00 +40°C° 0 mm 6 mps 728 mmHg 18%
21:00 +40°C° 0 mm 6 mps 728 mmHg 20%
22:00 +39°C° 0 mm 7 mps 728 mmHg 22%
23:00 +38°C° 0 mm 8 mps 728 mmHg 24%

Day after tomorrow, 27 July, Tuesday

Time Temperature Precipitation Wind Pressure Humidity
00:00 +35°C° 0 mm 7 mps 728 mmHg 24%
01:00 +34°C° 0 mm 6 mps 728 mmHg 24%
02:00 +33°C° 0 mm 5 mps 729 mmHg 25%
03:00 +32°C° 0 mm 5 mps 729 mmHg 24%
04:00 +29°C° 0 mm 4 mps 729 mmHg 23%
05:00 +28°C° 0 mm 4 mps 729 mmHg 23%
06:00 +30°C° 0 mm 4 mps 729 mmHg 21%
07:00 +32°C° 0 mm 4 mps 730 mmHg 20%
08:00 +34°C° 0 mm 4 mps 730 mmHg 18%
09:00 +36°C° 0 mm 5 mps 730 mmHg 18%
10:00 +39°C° 0 mm 5 mps 729 mmHg 17%
11:00 +41°C° 0 mm 5 mps 729 mmHg 16%
12:00 +43°C° 0 mm 5 mps 729 mmHg 15%
13:00 +45°C° 0 mm 6 mps 728 mmHg 14%
14:00 +46°C° 0 mm 6 mps 728 mmHg 12%
15:00 +46°C° 0 mm 6 mps 727 mmHg 12%
16:00 +46°C° 0 mm 6 mps 727 mmHg 11%
17:00 +46°C° 0 mm 6 mps 726 mmHg 11%
18:00 +44°C° 0 mm 7 mps 726 mmHg 13%
19:00 +41°C° 0 mm 7 mps 726 mmHg 15%
20:00 +39°C° 0 mm 7 mps 726 mmHg 18%
21:00 +36°C° 0 mm 7 mps 726 mmHg 19%
22:00 +35°C° 0 mm 7 mps 727 mmHg 20%
23:00 +34°C° 0 mm 7 mps 727 mmHg 22%

28 July, Wednesday

Time Temperature Precipitation Wind Pressure Humidity
00:00 +32°C° 0 mm 6 mps 727 mmHg 23%
01:00 +30°C° 0 mm 5 mps 727 mmHg 25%
02:00 +28°C° 0 mm 3 mps 727 mmHg 27%
03:00 +27°C° 0 mm 3 mps 727 mmHg 30%
04:00 +26°C° 0 mm 3 mps 727 mmHg 32%
05:00 +24°C° 0 mm 3 mps 727 mmHg 35%
06:00 +26°C° 0 mm 3 mps 728 mmHg 31%
07:00 +28°C° 0 mm 4 mps 728 mmHg 28%
08:00 +30°C° 0 mm 4 mps 729 mmHg 24%
09:00 +33°C° 0 mm 4 mps 729 mmHg 21%
10:00 +35°C° 0 mm 4 mps 729 mmHg 19%
11:00 +37°C° 0 mm 4 mps 728 mmHg 16%
12:00 +40°C° 0 mm 4 mps 728 mmHg 15%
13:00 +41°C° 0 mm 4 mps 728 mmHg 13%
14:00 +43°C° 0 mm 5 mps 727 mmHg 11%
15:00 +43°C° 0 mm 5 mps 727 mmHg 11%
16:00 +43°C° 0 mm 5 mps 726 mmHg 10%
17:00 +44°C° 0 mm 6 mps 726 mmHg 10%
18:00 +41°C° 0 mm 6 mps 726 mmHg 12%
19:00 +39°C° 0 mm 6 mps 727 mmHg 13%
20:00 +35°C° 0 mm 6 mps 727 mmHg 15%
21:00 +34°C° 0 mm 6 mps 727 mmHg 17%
22:00 +32°C° 0 mm 5 mps 727 mmHg 18%
23:00 +29°C° 0 mm 4 mps 728 mmHg 20%

29 July, Thursday

Time Temperature Precipitation Wind Pressure Humidity
00:00 +28°C° 0 mm 4 mps 728 mmHg 21%
01:00 +27°C° 0 mm 4 mps 728 mmHg 23%
02:00 +25°C° 0 mm 3 mps 728 mmHg 25%
03:00 +24°C° 0 mm 3 mps 728 mmHg 26%
04:00 +24°C° 0 mm 2 mps 728 mmHg 27%
05:00 +23°C° 0 mm 2 mps 729 mmHg 28%
06:00 +25°C° 0 mm 2 mps 729 mmHg 25%
07:00 +27°C° 0 mm 2 mps 729 mmHg 22%
08:00 +29°C° 0 mm 3 mps 730 mmHg 19%
09:00 +33°C° 0 mm 3 mps 730 mmHg 17%
10:00 +36°C° 0 mm 4 mps 730 mmHg 14%
11:00 +38°C° 0 mm 4 mps 730 mmHg 12%
12:00 +40°C° 0 mm 5 mps 730 mmHg 11%
13:00 +41°C° 0 mm 5 mps 729 mmHg 11%
14:00 +42°C° 0 mm 5 mps 729 mmHg 10%
15:00 +42°C° 0 mm 6 mps 729 mmHg 11%
16:00 +41°C° 0 mm 6 mps 729 mmHg 12%
17:00 +41°C° 0 mm 7 mps 729 mmHg 12%
18:00 +39°C° 0 mm 6 mps 729 mmHg 15%
19:00 +35°C° 0 mm 5 mps 729 mmHg 17%
20:00 +33°C° 0 mm 5 mps 730 mmHg 20%
21:00 +32°C° 0 mm 4 mps 730 mmHg 22%
22:00 +29°C° 0 mm 4 mps 730 mmHg 25%
23:00 +27°C° 0 mm 3 mps 730 mmHg 27%

30 July, Friday

Time Temperature Precipitation Wind Pressure Humidity
00:00 +27°C° 0 mm 3 mps 731 mmHg 29%
01:00 +26°C° 0 mm 3 mps 731 mmHg 30%
02:00 +25°C° 0 mm 3 mps 731 mmHg 32%
03:00 +26°C° 0 mm 3 mps 731 mmHg 32%
04:00 +26°C° 0 mm 3 mps 732 mmHg 31%
05:00 +26°C° 0 mm 3 mps 732 mmHg 30%
06:00 +27°C° 0 mm 3 mps 732 mmHg 28%
07:00 +28°C° 0 mm 2 mps 733 mmHg 26%
08:00 +29°C° 0 mm 2 mps 733 mmHg 24%
09:00 +30°C° 0.1 mm 2 mps 733 mmHg 24%
10:00 +31°C° 0.1 mm 2 mps 734 mmHg 24%
11:00 +32°C° 0.1 mm 2 mps 734 mmHg 25%
12:00 +34°C° 0 mm 2 mps 734 mmHg 23%
13:00 +36°C° 0 mm 3 mps 733 mmHg 21%
14:00 +37°C° 0 mm 3 mps 733 mmHg 20%
15:00 +37°C° 0 mm 3 mps 733 mmHg 19%
16:00 +37°C° 0 mm 4 mps 733 mmHg 18%
17:00 +37°C° 0 mm 4 mps 733 mmHg 17%
18:00 +35°C° 0 mm 4 mps 733 mmHg 19%
19:00 +33°C° 0 mm 3 mps 733 mmHg 21%
20:00 +29°C° 0 mm 3 mps 733 mmHg 23%
21:00 +28°C° 0 mm 3 mps 733 mmHg 26%
22:00 +27°C° 0 mm 3 mps 734 mmHg 29%
23:00 +26°C° 0 mm 4 mps 734 mmHg 33%
Show more